TimeCST,TemperatureF,Dew PointF,Humidity,Sea Level PressureIn,VisibilityMPH,Wind Direction,Wind SpeedMPH,Gust SpeedMPH,PrecipitationIn,Events,Conditions,WindDirDegrees,DateUTC
12:15 AM,24.8,11.5,57,30.58,10.0,SSW,11.5,-,N/A,,Clear,200,2013-11-13 06:15:00
12:35 AM,25.3,11.3,55,30.57,10.0,SSW,11.5,-,N/A,,Clear,200,2013-11-13 06:35:00
12:55 AM,25.0,11.3,56,30.55,10.0,SSW,13.8,18.4,N/A,,Clear,200,2013-11-13 06:55:00
1:15 AM,25.7,11.3,55,30.54,10.0,SSW,11.5,-,N/A,,Clear,200,2013-11-13 07:15:00
1:35 AM,25.7,11.7,55,30.53,10.0,SSW,15.0,-,N/A,,Clear,200,2013-11-13 07:35:00
1:55 AM,26.2,11.3,53,30.54,10.0,SSW,11.5,-,N/A,,Clear,200,2013-11-13 07:55:00
2:15 AM,25.7,11.7,55,30.52,10.0,SSW,13.8,-,N/A,,Clear,200,2013-11-13 08:15:00
2:35 AM,25.3,12.2,58,30.52,10.0,SSW,11.5,-,N/A,,Clear,210,2013-11-13 08:35:00
2:55 AM,25.2,12.4,58,30.51,10.0,SSW,10.4,-,N/A,,Clear,210,2013-11-13 08:55:00
3:15 AM,24.4,12.9,62,30.51,10.0,SSW,9.2,-,N/A,,Clear,200,2013-11-13 09:15:00
3:35 AM,24.6,13.1,62,30.50,10.0,South,10.4,-,N/A,,Clear,190,2013-11-13 09:35:00
3:55 AM,24.3,13.6,64,30.49,10.0,South,9.2,-,N/A,,Clear,190,2013-11-13 09:55:00
4:15 AM,24.4,13.6,64,30.48,10.0,South,10.4,-,N/A,,Clear,190,2013-11-13 10:15:00
4:35 AM,23.9,14.0,66,30.47,10.0,South,9.2,-,N/A,,Clear,180,2013-11-13 10:35:00
4:55 AM,23.7,14.5,68,30.46,10.0,South,10.4,-,N/A,,Clear,190,2013-11-13 10:55:00
5:15 AM,24.1,14.5,67,30.45,10.0,South,11.5,-,N/A,,Clear,190,2013-11-13 11:15:00
5:35 AM,24.4,14.5,66,30.44,10.0,South,11.5,-,N/A,,Clear,190,2013-11-13 11:35:00
5:55 AM,24.4,14.7,67,30.44,10.0,South,10.4,-,N/A,,Clear,190,2013-11-13 11:55:00
6:15 AM,24.6,14.7,66,30.44,10.0,South,9.2,-,N/A,,Clear,180,2013-11-13 12:15:00
6:35 AM,24.8,14.7,66,30.43,10.0,South,13.8,-,N/A,,Clear,180,2013-11-13 12:35:00
6:55 AM,25.2,14.4,64,30.43,10.0,South,13.8,-,N/A,,Clear,190,2013-11-13 12:55:00
7:15 AM,25.2,14.5,64,30.42,10.0,South,13.8,-,N/A,,Clear,180,2013-11-13 13:15:00
7:35 AM,25.5,14.4,63,30.42,10.0,South,12.7,-,N/A,,Clear,180,2013-11-13 13:35:00
7:55 AM,25.7,14.9,64,30.41,10.0,South,15.0,-,N/A,,Clear,190,2013-11-13 13:55:00
8:15 AM,26.8,15.1,61,30.41,10.0,South,12.7,-,N/A,,Clear,190,2013-11-13 14:15:00
8:35 AM,28.6,15.4,58,30.41,10.0,South,12.7,-,N/A,,Clear,190,2013-11-13 14:35:00
8:55 AM,30.6,16.0,55,30.40,10.0,South,15.0,-,N/A,,Clear,190,2013-11-13 14:55:00
9:15 AM,32.4,16.5,52,30.39,10.0,SSW,18.4,24.2,N/A,,Clear,200,2013-11-13 15:15:00
9:35 AM,35.1,16.2,46,30.38,10.0,SSW,18.4,-,N/A,,Clear,210,2013-11-13 15:35:00
9:55 AM,36.7,16.3,44,30.37,10.0,SSW,19.6,25.3,N/A,,Clear,210,2013-11-13 15:55:00
10:15 AM,38.1,16.7,42,30.35,10.0,SSW,20.7,31.1,N/A,,Clear,200,2013-11-13 16:15:00
10:35 AM,39.6,17.6,41,30.34,10.0,SSW,23.0,29.9,N/A,,Clear,210,2013-11-13 16:35:00
10:55 AM,40.8,18.1,40,30.32,10.0,SSW,20.7,29.9,N/A,,Clear,210,2013-11-13 16:55:00
11:15 AM,42.4,19.0,39,30.31,10.0,SSW,23.0,27.6,N/A,,Clear,200,2013-11-13 17:15:00
11:35 AM,43.9,19.8,38,30.30,10.0,SSW,19.6,26.5,N/A,,Clear,210,2013-11-13 17:35:00
11:55 AM,46.0,21.2,37,30.27,10.0,SSW,18.4,-,N/A,,Clear,210,2013-11-13 17:55:00
12:15 PM,46.9,21.7,37,30.26,10.0,SW,21.9,32.2,N/A,,Clear,220,2013-11-13 18:15:00
12:35 PM,48.4,22.5,36,30.25,10.0,SSW,18.4,29.9,N/A,,Clear,210,2013-11-13 18:35:00
12:55 PM,49.8,23.5,36,30.23,10.0,SSW,18.4,24.2,N/A,,Clear,210,2013-11-13 18:55:00
1:15 PM,51.3,24.4,35,30.22,10.0,SSW,18.4,24.2,N/A,,Clear,200,2013-11-13 19:15:00
1:35 PM,51.8,25.0,35,30.20,10.0,South,18.4,26.5,N/A,,Clear,190,2013-11-13 19:35:00
1:55 PM,51.8,25.0,35,30.19,10.0,South,19.6,25.3,N/A,,Clear,190,2013-11-13 19:55:00
2:15 PM,52.3,25.3,35,30.18,10.0,SSW,17.3,29.9,N/A,,Clear,200,2013-11-13 20:15:00
2:35 PM,53.1,25.7,35,30.17,10.0,South,23.0,26.5,N/A,,Clear,190,2013-11-13 20:35:00
2:55 PM,53.2,26.1,35,30.15,10.0,South,19.6,27.6,N/A,,Clear,190,2013-11-13 20:55:00
3:15 PM,53.1,26.4,36,30.15,10.0,SSW,19.6,24.2,N/A,,Clear,200,2013-11-13 21:15:00
3:35 PM,53.2,26.8,36,30.14,10.0,South,18.4,26.5,N/A,,Clear,190,2013-11-13 21:35:00
3:55 PM,53.1,27.3,37,30.14,10.0,South,17.3,26.5,N/A,,Clear,190,2013-11-13 21:55:00
4:15 PM,52.5,27.3,38,30.13,10.0,South,18.4,24.2,N/A,,Clear,190,2013-11-13 22:15:00
4:35 PM,51.4,27.5,40,30.12,10.0,South,15.0,24.2,N/A,,Clear,190,2013-11-13 22:35:00
4:55 PM,50.0,28.0,43,30.12,10.0,South,12.7,-,N/A,,Clear,190,2013-11-13 22:55:00
5:15 PM,48.0,27.5,45,30.11,10.0,South,12.7,-,N/A,,Clear,180,2013-11-13 23:15:00
5:35 PM,46.4,27.3,47,30.11,10.0,South,10.4,-,N/A,,Clear,190,2013-11-13 23:35:00
5:55 PM,46.4,27.5,48,30.11,10.0,South,15.0,18.4,N/A,,Clear,190,2013-11-13 23:55:00
6:15 PM,45.7,27.3,49,30.11,10.0,South,12.7,-,N/A,,Clear,190,2013-11-14 00:15:00
6:35 PM,44.6,27.1,50,30.10,10.0,South,12.7,19.6,N/A,,Clear,180,2013-11-14 00:35:00
6:55 PM,44.6,27.0,50,30.10,10.0,South,17.3,21.9,N/A,,Clear,180,2013-11-14 00:55:00
7:15 PM,43.9,27.0,51,30.10,10.0,South,15.0,19.6,N/A,,Clear,190,2013-11-14 01:15:00
7:35 PM,43.3,26.6,52,30.09,10.0,South,15.0,23.0,N/A,,Clear,180,2013-11-14 01:35:00
7:55 PM,42.8,26.6,53,30.08,10.0,South,18.4,-,N/A,,Clear,190,2013-11-14 01:55:00
8:15 PM,42.1,26.4,54,30.08,10.0,South,17.3,25.3,N/A,,Clear,190,2013-11-14 02:15:00
8:35 PM,41.5,26.4,55,30.07,10.0,South,18.4,21.9,N/A,,Clear,190,2013-11-14 02:35:00
8:55 PM,41.0,26.4,56,30.07,10.0,South,17.3,21.9,N/A,,Clear,190,2013-11-14 02:55:00
9:15 PM,40.6,26.4,57,30.07,10.0,South,16.1,21.9,N/A,,Clear,190,2013-11-14 03:15:00
9:35 PM,40.3,26.2,57,30.07,10.0,SSW,15.0,-,N/A,,Clear,200,2013-11-14 03:35:00
9:55 PM,39.7,26.1,58,30.07,10.0,SSW,13.8,20.7,N/A,,Clear,200,2013-11-14 03:55:00
10:15 PM,39.7,25.7,57,30.06,10.0,SSW,11.5,-,N/A,,Clear,200,2013-11-14 04:15:00
10:35 PM,39.6,25.5,57,30.06,10.0,SSW,15.0,-,N/A,,Clear,200,2013-11-14 04:35:00
10:55 PM,39.2,25.2,57,30.04,10.0,South,15.0,-,N/A,,Clear,190,2013-11-14 04:55:00
11:15 PM,39.2,24.8,56,30.04,10.0,SSW,12.7,-,N/A,,Clear,200,2013-11-14 05:15:00
11:35 PM,39.0,24.6,56,30.03,10.0,SSW,12.7,-,N/A,,Clear,200,2013-11-14 05:35:00
11:55 PM,39.2,24.3,55,30.02,10.0,SSW,13.8,-,N/A,,Clear,200,2013-11-14 05:55:00